Regional Weather Roundup
Issued by NWS Upton, NY

Current Version | Previous Version | Text Only | Print | Product List | Glossary On
Versions: 1 2 3 4 5 6 7 8 9 10 11 12 13 14 15 16 17 18 19 20 21 22 23 24 25 26 27
000
ASUS41 KOKX 292004
RWROKX

REGIONAL WEATHER ROUNDUP
NATIONAL WEATHER SERVICE NEW YORK NY
400 PM EDT SUN MAY 29 2016

NOTE: "FAIR" INDICATES FEW OR NO CLOUDS BELOW 12,000 FEET WITH NO
SIGNIFICANT WEATHER AND/OR OBSTRUCTIONS TO VISIBILITY.

NYZ071-072-176-178-NJZ106-104-292100-
NEW YORK CITY METRO AREA


CITY           SKY/WX    TMP DP  RH WIND       PRES   REMARKS
CENTRAL PARK   MOSUNNY   79  61  53 VRB7      30.11F
LAGUARDIA APRT PTSUNNY   81  70  69 S15       30.08F
KENNEDY INTL   PTSUNNY   71  65  81 SE16      30.11F HAZE
NEWARK/LIBERTY PTSUNNY   84  58  40 SE12      30.06F
BRNX BOT. GARD   N/A     79  63  57 SE14      30.11R
TETERBORO      MOSUNNY   85  52  32 SE12      30.06F
$$

NYZ177-179-078>081-292100-
LONG ISLAND NEW YORK

CITY           SKY/WX    TMP DP  RH WIND       PRES   REMARKS
FARMINGDALE    MOSUNNY   75  67  76 S15       30.12F
ISLIP          PTSUNNY   73  66  78 S10       30.12F
SHIRLEY        PTSUNNY   72  66  81 S13       30.13F
RIVERHEAD        N/A     79  70  73 CALM      30.11S
WESTHAMPTON    MOSUNNY   73  66  78 SW12      30.15F
EAST HAMPTON   FAIR      71  65  81 S10       30.13F
MONTAUK POINT    N/A     68  64  87 VRB5      30.15F
$$

NYZ052-065-067-292100-
HUDSON VALLEY

CITY           SKY/WX    TMP DP  RH WIND       PRES   REMARKS
WHITE PLAINS   PTSUNNY   82  50  32 S12G17    30.10S
NEWBURGH       MOSUNNY   88  66  48 SW12      30.06F HX  90
MONTGOMERY     PTSUNNY   88  67  49 S13       30.03F HX  91
POUGHKEEPSIE   SUNNY     90  64  42 S8        30.03F HX  91
ALBANY         CLOUDY    81  66  60 SE10G18   30.03R
$$

NJZ001-105-106-008-010-013-015-019>022-104-292100-
NEW JERSEY

CITY           SKY/WX    TMP DP  RH WIND       PRES   REMARKS
NEWARK/LIBERTY PTSUNNY   84  58  40 SE12      30.06F
TETERBORO      MOSUNNY   85  52  32 SE12      30.06F
CALDWELL       CLOUDY    84  57  39 SE16      30.05F
MORRISTOWN     PTSUNNY   88  52  29 S7        30.05F
SOMERVILLE     CLOUDY    88  59  37 SW6       30.04F
SUSSEX         CLOUDY    87  64  46 VRB6      30.05F
ANDOVER          N/A     85  63  47 S7        30.07F
TRENTON        SUNNY     88  49  25 S9        30.06F
MILLVILLE      MOSUNNY   81  68  64 SE12      30.10F
ATLANTIC CITY  MOSUNNY   78  69  73 S12       30.11F
WRIGHTSTOWN    MOSUNNY   87  70  57 S14G20    30.04F HX  91
TOMS RIVER     SUNNY     84  64  51 S16       30.09F
BELMAR         SUNNY     80  68  66 SE14G20   30.10F
$$

PAZ047>061-062-071-292100-
EASTERN PENNSYLVANIA

CITY           SKY/WX    TMP DP  RH WIND       PRES   REMARKS
PHILADELPHIA   PTSUNNY   86  63  45 S12       30.07F
ALLENTOWN      SUNNY     88  57  34 S6G16     30.06F
SCRANTON       CLOUDY    85  60  42 S10       30.05F
$$

CTZ002-004>006-009-010-012-RIZ004-006-007-MAZ004-011-015-292100-
SOUTHERN NEW ENGLAND
 IN CT

CITY           SKY/WX    TMP DP  RH WIND       PRES   REMARKS
BRADLEY INTL   MOSUNNY   89  62  40 S10       30.06S
HARTFORD       SUNNY     89  64  43 S12G23    30.07F HX  90
DANBURY        MOSUNNY   83  63  50 SE14G21   30.09F
WTRBRY/OXFORD  MOSUNNY   82  63  51 S15G21    30.13F
BRIDGEPORT     SUNNY     82  53  36 S13       30.09F
MERIDEN        SUNNY     86  60  41 S13G21    30.09S
NEW HAVEN      PTSUNNY   78  59  51 S13       30.10F
CHESTER        FAIR      81  57  44 S10G17    30.13S
GROTON         PTSUNNY   70  64  81 S10       30.12F
WILLIMANTIC    MOSUNNY   87  63  44 SW13      30.10F

 IN RI

CITY           SKY/WX    TMP DP  RH WIND       PRES   REMARKS
PROVIDENCE     PTSUNNY   77  61  57 SE12      30.14F
BLOCK ISLAND   LGT RAIN  67  63  87 S12       30.15F FOG
WESTERLY       CLOUDY    72  60  66 S8        30.15F

 IN MA

CITY           SKY/WX    TMP DP  RH WIND       PRES   REMARKS
BOSTON         CLOUDY    58  53  84 NE10      30.20S
WORCESTER      CLOUDY    62  57  83 E9        30.17F
WESTFIELD      CLOUDY    82  66  58 N13       30.08S
PROVINCETOWN   CLOUDY    58  54  86 N8        30.18S
NANTUCKET      SUNNY     68  60  75 SW12      30.16F
$$

ANZ330-335-338-340-345-350-353-355-292100-
COASTAL MARINE OBSERVATIONS


STATION/POSITION TIME  SKY/WX   TEMP    WIND        PRES    VSBY  WAVE
                                AIR SEA DIR/SP/G                  HT/PER
                 (UTC)          (F)     (DEG/KT/KT) (MB)    (MI)  (FT/S)
NY HARB ENTRANCE 1950            61 59  170/ 12/ 14 1018.9          2/ 8
20S FIRE ISLAND  1850            62 62  180/  8/  8 1020.3          3/ 8
GREAT SOUTH BAY  1900            63 71  190/  6/ 10   N/A
23 SSW MONTAUK P 1950            60 60  200/  6/  8 1020.2          2/ 8
15 E BARNEGAT LI 1922               63                N/A           2/ 8
HUDSON CANYON    1850            65 63              1020.9          3/ 8
KINGS POINT      1900            74 63              1019.1
EXECUTION ROCKS  NOT AVBL
CENTRAL LI SOUND 1945            71     190/  8/  8   N/A           0
EASTERN LI SOUND 1900            64 56  120/  8/ 10   N/A
ROBBINS REEF     1900            69     160/ 16/ 20 1018.5
$$


>>>>>>>>>>>>>>>>>>>>>>>>>>>> KEY <<<<<<<<<<<<<<<<<<<<<<<<<<<
>                                                          <
>     SKY/WX - SKY CONDITION/PRESENT WEATHER               <
>     TMP    - TEMPERATURE IN FAHRENHEIT                   <
>     DP     - DEWPOINT IN FAHRENHEIT                      <
>     RH     - RELATIVE HUMIDITY IN PERCENT                <
>     WIND   - DIRECTION AND SPEED IN MPH                  <
>     PRES   - MEAN SEA LEVEL PRESSURE IN INCHES OF HG     <
>     WCI    - WIND CHILL INDEX                            <
>     VSB    - VISIBILITY IN MILES                         <
>     HX     - HEAT INDEX                                  <
>     TC     - TEMPERATURE IN CELSIUS                      <
>     VRB    - VARIABLE WIND DIRECTION                     <
>                                                          <
>>>>>>>>>>>>>>>>>>>>>>>>>>>> KEY <<<<<<<<<<<<<<<<<<<<<<<<<<<






USA.gov is the U.S. government's official web portal to all federal, state and local government web resources and services.